Погода в Петровке

Казахстан     54°18′01″N   68°13′28″E
темп.,
°C
ветер,
м/с
пор.,
м/с
влажн.,
%
обл.,
%
осадки,
мм/ч
давл.,
гПа
погр.,
м
10 мая, пн
пн1000:00+16всв91545100 0.0 1014889
03:00+14всв81349100 0.0 1014964
06:00+12всв71252100 0.1 1016768
09:00+12всв81146100 0.0 1018861
12:00+15всв81036100 0.0 10191302
15:00+18всв81025100 0.0 10201824
18:00+17всв8926100 0.0 10211888
21:00+14св4937100 0.0 1022212
11 мая, вт
вт1100:00+11св4104844 0.0 1024253
03:00+9св3756100 0.0 1025137
06:00+8св355855 0.0 102680
09:00+13св45430 0.0 1027416
12:00+18св45320 0.0 10271592
15:00+20ссв45260 0.0 10261849
18:00+21ссв45230 0.0 10262097
21:00+17ссв22353 0.0 102711
12 мая, ср
ср1200:00+15сз11405 0.0 102711
03:00+13сз2245100 0.0 102714
06:00+12сз335160 0.0 102835
09:00+17зсз45375 0.0 1027348
12:00+22зсз562583 0.0 10261733
15:00+24сз562692 0.0 10252529
18:00+23сз473090 0.0 10242197
21:00+19ссз3447100 0.0 102458
13 мая, чт
чт1300:00+17с236094 0.0 102587
03:00+14с225699 0.0 102517
06:00+13ссз355817 0.0 102588
09:00+15с585492 0.0 1026670
12:00+18с674448 0.0 10261590
15:00+21с683898 0.0 10242269
18:00+21ссз573991 0.0 10241844
21:00+18сз335132 0.0 102424
14 мая, пт
пт1400:00+16зсз35575 0.0 102571
03:00+15сз36655 0.0 1025107
06:00+14с36755 0.0 1026107
09:00+18св345811 0.0 1027416
12:00+22ссв35395 0.0 10271425
15:00+25с35301 0.0 10262309
18:00+26зсз252821 0.0 10252600
21:00+23юз454049 0.0 102460